CZ-6A DEB, 60687

Orbit data source: Space-Track

CZ-6A DEB, 60687 is space debris in LEO originally from a launch on Tue, 06 Aug 2024 UTC launched from the Taiyaun Space Center, China (TSC). Debris objects in space refer to the collection of defunct objects orbiting the Earth. Examples of debris include non-operational satellites, rocket bodies, and fragments generated from explosions, collisions, or faulty payload assembly.

Loading next visibility...
Identifier
60687, 2024-140CQ
Orbit
LEO
Country
Flag of CNCN / PRC
Related business
Manufacturer
SAST
Mission
Spacecraft
Bus & Motor
Unknown
Mass
Unknown
Launch date (UTC)
2024-08-06 (2 years ago)
Launch vehicle
Unknown
Launch site
Taiyaun Space Center, China (TSC)
Object type
Payload
Rocket body
Debris
Shape & HBR
Unknown shape, 0.2 m
Radar Cross Section
Medium (>0.1 m² and <1 m²)

Expand to show TLE details & history
Last TLE update: 13 hours ago

TLE from 13 hours ago
0 CZ-6A DEB
1 60687U 24140CQ  26171.30687483  .00000941  00000-0  44668-3 0  9999
2 60687  89.0104 275.4858 0058349 191.6918 168.2920 14.17841382 96309
Epoch: 2026-06-20T07:21Z
TLE epoch observation values (Epoch: 2026-06-20T07:21:53.985Z)
Latitude
-0.00005°
Longitude
-103.51252°
Altitude
876.93 km
Speed
7.393 km/s
True Right ascension
18h 21m 56s
True Declination
0° 00' 00"
Sunlit
Object was in full shadow at epoch
Visualization orbit readout
Latitude
Unknown
Longitude
Unknown
Altitude
Unknown
Speed
Unknown
Apparent Right ascension
Unknown
Apparent Declination
Unknown
Sunlit
N/A
Visualization observer readout
Local Sidereal Time
07:24:23
Azimuth
Unknown
Elevation
Unknown
Doppler factor
Unknown
Orbital elements
Apogee altitude
871.673 km
Perigee altitude
787.56 km
Semi-major axis
7,207.753 km
Eccentricity
0.00583
Inclination
89.0104°
RAAN
275.4858°
Arg. of periapsis
191.6918°
True anomaly
168.42672°
Mean anomaly
168.292°
Eccentric anomaly
168.35946°
Mean motion
3.54685 °/min
Orbital period
101.5 mins
BSTAR
0.00044668
Loading maneuver chart data...
Computing Atmospheric mass density...
Loading historical data...
Loading historical data...
Loading historical data...
Loading historical data...
Loading historical data...
Loading historical data...
Loading historical data...

Documentation

Showing up to 5 results
|